Tracking 28052 objects as of 21-Sep-2023
HD Live streaming from Space Station
objects crossing your sky now

COSMOS 1974

Track COSMOS 1974 now!
COSMOS 1974 is classified as:


NORAD ID: 19554
Int'l Code: 1988-092A
Perigee: 8,474.2 km
Apogee: 31,877.2 km
Inclination: 70.0 °
Period: 717.4 minutes
Semi major axis: 26546 km
RCS: 16.1296 m2 (large)
Launch date: October 3, 1988
Source: Commonwealth of Independent States (former USSR) (CIS)
Launch site: PLESETSK MISSILE AND SPACE COMPLEX (PKMTR)
Your satellite tracking list
Your tracking list is empty




NASA's NSSDC Master Catalog

Two Line Element Set (TLE):
1 19554U 88092A   23263.04221417  .00000133  00000-0  00000-0 0  9995
2 19554  69.9846 220.0849 4407899  93.0374  39.3569  2.00718134256059
Source of the keplerian elements: AFSPC